Home   Weather   Edinburgh   Past weeks

Flag for United Kingdom Past Weather in Edinburgh, Scotland, United Kingdom — Yesterday and Last 2 Weeks

Now
52 °F

Broken clouds.


Feels Like: 51 °F
Forecast: 45 / 61 °F
Wind: 3 mph from North

Location: Edinburgh Airport

Current Time: Jun 20, 2018 at 10:26:07 am

Latest Report: Jun 20, 2018 at 9:50 am


Visibility: N/A

Pressure: 29.89 "Hg

Humidity: 100%

Dew Point: 52 °F

Location of EdinburghLocation

Past Weather in Edinburgh — Graph

°F

Edinburgh Temperature Yesterday

Maximum temperature yesterday: 61 °F (at 3:20 pm)
Minimum temperature yesterday: 46 °F (at 3:50 am)
Average temperature yesterday: 54 °F

High & Low Weather Summary for the Past Weeks

 TemperatureHumidityPressure
High70 °F (Jun 10, 2:50 pm)100% (Jun 6, 11:20 pm)30.18 "Hg (Jun 6, 11:20 pm)
Low41 °F (Jun 17, 3:20 am)45% (Jun 6, 3:20 pm)29.12 "Hg (Jun 14, 8:50 am)
Average55 °F81%29.93 "Hg
* Reported Jun 5 8:20 am — Jun 20 8:50 am, Edinburgh. Weather by CustomWeather, © 2018

Note: Actual official high and low records may vary slightly from our data, if they occured in-between our weather recording intervals... More about our weather records

Advertising

Edinburgh Weather History for the Previous 24 Hours

Scroll right to see more
 ConditionsComfort  
Time TempWeatherWind HumidityBarometerVisibility
8:50 am
Wed, Jun 20
52 °FMostly cloudy.3 mph100%29.86 "HgN/A
8:20 am50 °FDrizzle. Mostly cloudy.2 mph100%29.86 "Hg3 mi
7:50 am50 °FLight rain. Low clouds.2 mph100%29.83 "HgN/A
7:20 am50 °FDrizzle. Mostly cloudy.2 mph100%29.80 "Hg2 mi
6:50 am50 °FDrizzle. Partly sunny.6 mph100%29.80 "Hg2 mi
5:20 am50 °FDrizzle. Low clouds.5 mph100%29.77 "Hg2 mi
4:50 am50 °FDrizzle. Low clouds.5 mph100%29.80 "Hg1 mi
4:20 am50 °FLight rain. Low clouds.6 mph100%29.80 "Hg3 mi
3:50 am50 °FLight rain. Low clouds.8 mph100%29.80 "Hg4 mi
3:20 am50 °FLight rain. Passing clouds.6 mph100%29.83 "Hg3 mi
2:50 am50 °FRain. Passing clouds.6 mph100%29.83 "Hg2 mi
2:20 am50 °FLight rain. Passing clouds.7 mph100%29.83 "Hg4 mi
1:50 am50 °FLight rain. Low clouds.6 mph100%29.86 "HgN/A
1:20 am50 °FLight rain. Passing clouds.8 mph100%29.86 "Hg5 mi
12:50 am50 °FLight rain. Low clouds.8 mph100%29.89 "Hg4 mi
12:20 am50 °FRain. Low clouds.9 mph100%29.89 "Hg3 mi
11:50 pm
Tue, Jun 19
50 °FLight rain. Passing clouds.9 mph100%29.89 "Hg2 mi
11:20 pm50 °FLight rain. Mostly cloudy.6 mph100%29.92 "Hg2 mi
10:50 pm50 °FLight rain. Passing clouds.5 mph100%29.95 "Hg4 mi
10:20 pm52 °FLight rain. Mostly cloudy.2 mph94%29.95 "Hg4 mi
9:50 pm52 °FLight rain. Overcast.3 mph94%29.95 "Hg2 mi
9:20 pm54 °FLight rain. Overcast.6 mph88%29.95 "HgN/A
8:50 pm54 °FLight rain. Partly sunny.7 mph82%29.98 "HgN/A
8:20 pm55 °FLight rain. Scattered clouds.8 mph77%29.98 "HgN/A
7:50 pm55 °FPassing clouds.2 mph72%30.01 "HgN/A
7:20 pm55 °FScattered clouds.2 mph72%30.01 "HgN/A
6:50 pm57 °FLight rain. Scattered clouds.3 mph59%30.01 "HgN/A
6:20 pm57 °FLight rain. Partly sunny.5 mph55%30.01 "HgN/A
5:50 pm59 °FScattered clouds.7 mph51%30.04 "HgN/A
5:20 pm59 °FScattered clouds.8 mph51%30.04 "HgN/A
4:50 pm61 °FPassing clouds.12 mph45%30.04 "HgN/A
4:20 pm61 °FScattered clouds.12 mph45%30.04 "HgN/A
3:50 pm61 °FScattered clouds.14 mph48%30.04 "HgN/A
3:20 pm61 °FScattered clouds.12 mph52%30.07 "HgN/A
2:50 pm59 °FScattered clouds.16 mph55%30.07 "HgN/A
2:20 pm59 °FPartly sunny.15 mph55%30.07 "HgN/A
1:50 pm57 °FPartly sunny.10 mph59%30.07 "HgN/A
1:20 pm57 °FPartly sunny.14 mph59%30.07 "HgN/A
12:50 pm59 °FPartly sunny.14 mph59%30.07 "HgN/A
12:20 pm57 °FPartly sunny.17 mph59%30.07 "HgN/A
11:50 am59 °FPartly sunny.15 mph59%30.07 "HgN/A
11:20 am55 °FPartly sunny.9 mph67%30.07 "HgN/A
10:50 am55 °FScattered showers. Partly sunny.12 mph67%30.07 "HgN/A
10:20 am57 °FPartly sunny.10 mph67%30.07 "HgN/A
Weather by CustomWeather, © 2018

See weather overview